Location: ?ejkovice
(49.0137°N, 14.3821°E)
Time: 17:26:50
(UTC+00:00)

IDEFIX/ARIANE 42P - Pass Details

Date: 23 May 2024
Orbit: 783 x 799 km, 98.5° (Epoch: 12 June)

Event Time Altitude Azimuth Distance (km) Brightness Sun altitude
Rises 01:17:03 0° 12° (NNE) 3,317 7.2 -13.9°
Reaches altitude 10° 01:19:24 10° 9° (N) 2,384 6.2 -13.7°
Maximum altitude 01:24:37 66° 289° (WNW) 877 2.7 -13.2°
Enters shadow 01:28:29 18° 211° (SSW) 1,869 3.8 -12.8°
